Location: Newark
(44.6028°N, 124.0883°W)
Time: 11:46:41
(UTC+00:00)

Vanguard 1 Rocket - Pass Details

Date: 31 October 2019
Orbit: 651 x 4225 km, 34.3° (Epoch: 12 November)

Event Time Altitude Azimuth Distance (km) Brightness Sun altitude
Rises 01:01:28 0° 271° (W) 7,672 13.7 0.3°
Reaches altitude 10° 01:15:05 10° 241° (WSW) 7,307 13.9 -2.0°
Maximum altitude 01:18:54 11° 232° (SW) 7,340 13.4 -2.6°
Drops below altitude 10° 01:22:48 10° 223° (SW) 7,424 13.1 -3.3°
Sets 01:37:54 0° 192° (SSW) 8,135 12.6 -5.9°
